Bainbridge, GA

4:24 AM EST on November 19, 2017 (GMT -0500)
Decatur County Industrial

Weather History for KBGE - January, 2014

Change the Weather History Date:

Saturday, January 11, 2014

  Actual Average (KTLH) Record (KTLH)
Temperature  
Mean Temperature 66 °F -  
Max Temperature 73 °F 59 °F 82 °F (1948)
Min Temperature 55 °F 38 °F 14 °F (2010)
Cooling Degree Days 1    
Growing Degree Days 16 (Base 50)    
Moisture  
Dew Point 64 °F    
Average Humidity 90    
Maximum Humidity 100    
Minimum Humidity 55    
Precipitation  
Precipitation 0.00 in - - ()
Sea Level Pressure  
Sea Level Pressure 29.91 in    
Wind  
Wind Speed 10 mph (SW)    
Max Wind Speed 21 mph    
Max Gust Speed 32 mph    
Visibility 9 miles    
Events Rain , Thunderstorm    
Averages and records for this station are not official NWS values.
T = Trace of Precipitation, MM = Missing Value Source: NWS Daily Summary

Daily Weather History Graph

Daily Weather History Graph

Search for Another Location

Airport or City:

Trip Planner

Search our weather history database for the weather conditions in past years. The results will help you decide how hot, cold, wet, or windy it might be!

Date:

Astronomy

Jan. 11, 2014 Rise Set
Actual Time 7:37 AM EST 5:55 PM EST
Civil Twilight 7:11 AM EST 6:21 PM EST
Nautical Twilight 6:41 AM EST 6:51 PM EST
Astronomical Twilight 6:12 AM EST 7:20 PM EST
Moon 2:36 PM EST (1/11) 3:45 AM EST (1/11)
Length of Visible Light 11h 10m
Length of Day
10h 18m
Waxing Gibbous, 83% of the Moon is Illuminated
Jan 11
Waxing Gibbous
Jan 15
Full
Jan 24
Last Quarter
Jan 30
New
Feb 6
First Quarter

Hourly Weather History & Observations

Time (EST) Temp. Dew Point Humidity Pressure Visibility Wind Dir Wind Speed Gust Speed Precip Events Conditions
12:15 AM 68.0 °F 66.2 °F 94% 30.02 in 10.0 mi South 6.9 mph - N/A   Overcast
12:35 AM 68.0 °F 66.2 °F 94% 30.02 in 10.0 mi South 6.9 mph - N/A   Overcast
12:55 AM 68.0 °F 66.2 °F 94% 30.02 in 7.0 mi South 5.8 mph - N/A   Overcast
1:15 AM 68.0 °F 66.2 °F 94% 30.01 in 3.0 mi South 9.2 mph - N/A   Overcast
1:35 AM 68.0 °F 66.2 °F 94% 30.00 in 3.0 mi South 10.4 mph - N/A   Overcast
1:55 AM 68.0 °F 66.2 °F 94% 30.00 in 7.0 mi South 10.4 mph - N/A   Overcast
2:15 AM 68.0 °F 66.2 °F 94% 30.00 in 10.0 mi South 10.4 mph 16.1 mph N/A   Overcast
2:35 AM 68.0 °F 66.2 °F 94% 29.99 in 10.0 mi South 12.7 mph 16.1 mph N/A   Overcast
2:55 AM 68.0 °F 68.0 °F 100% 29.98 in 7.0 mi South 8.1 mph - N/A Thunderstorm Overcast
3:15 AM 68.0 °F 68.0 °F 100% 29.97 in 10.0 mi South 11.5 mph - N/A   Overcast
3:35 AM 68.0 °F 68.0 °F 100% 29.97 in 10.0 mi South 9.2 mph - N/A   Overcast
3:55 AM 68.0 °F 68.0 °F 100% 29.97 in 10.0 mi South 11.5 mph - N/A   Overcast
4:15 AM 68.0 °F 68.0 °F 100% 29.96 in 10.0 mi South 12.7 mph - N/A   Overcast
4:35 AM 68.0 °F 68.0 °F 100% 29.96 in 10.0 mi SSW 10.4 mph - N/A   Overcast
4:55 AM 68.0 °F 68.0 °F 100% 29.96 in 10.0 mi SSW 9.2 mph - N/A   Overcast
5:15 AM 68.0 °F 68.0 °F 100% 29.96 in 10.0 mi SSW 5.8 mph - N/A   Overcast
5:35 AM 68.0 °F 68.0 °F 100% 29.95 in 10.0 mi South 8.1 mph - N/A   Overcast
5:55 AM 68.0 °F 68.0 °F 100% 29.93 in 10.0 mi SSE 9.2 mph - N/A   Overcast
6:15 AM 68.0 °F 68.0 °F 100% 29.93 in 10.0 mi South 10.4 mph - N/A   Overcast
6:35 AM 68.0 °F 68.0 °F 100% 29.92 in 10.0 mi SSE 10.4 mph 18.4 mph N/A   Overcast
6:55 AM 68.0 °F 68.0 °F 100% 29.91 in 10.0 mi South 17.3 mph 23.0 mph N/A Rain Rain
7:15 AM 69.8 °F 68.0 °F 94% 29.90 in 7.0 mi South 20.7 mph 32.2 mph N/A Rain , Thunderstorm Light Thunderstorms and Rain
7:35 AM 71.6 °F 69.8 °F 94% 29.90 in 5.0 mi South 20.7 mph 31.1 mph N/A Rain Rain
7:55 AM 69.8 °F 68.0 °F 94% 29.92 in 7.0 mi South 11.5 mph 23.0 mph N/A Rain Light Rain
8:15 AM 68.0 °F 66.2 °F 94% 29.92 in 10.0 mi South 9.2 mph 18.4 mph N/A Rain Light Rain
8:35 AM 69.8 °F 68.0 °F 94% 29.93 in 10.0 mi South 9.2 mph - N/A   Scattered Clouds
8:55 AM 69.8 °F 68.0 °F 94% 29.93 in 10.0 mi SSW 8.1 mph - N/A   Scattered Clouds
9:15 AM 69.8 °F 68.0 °F 94% 29.92 in 10.0 mi South 10.4 mph - N/A   Mostly Cloudy
9:35 AM 71.6 °F 68.0 °F 88% 29.91 in 10.0 mi SSW 12.7 mph - N/A Thunderstorm Scattered Clouds
9:55 AM 73.4 °F 69.8 °F 88% 29.92 in 10.0 mi South 10.4 mph - N/A   Clear
10:15 AM 71.6 °F 68.0 °F 88% 29.92 in 10.0 mi South 11.5 mph 16.1 mph N/A   Clear
10:35 AM 73.4 °F 68.0 °F 83% 29.92 in 10.0 mi South 13.8 mph 18.4 mph N/A   Clear
10:55 AM 73.4 °F 69.8 °F 88% 29.90 in 10.0 mi South 13.8 mph 19.6 mph N/A Rain Light Rain
11:15 AM 73.4 °F 68.0 °F 83% 29.89 in 10.0 mi SSW 18.4 mph 26.5 mph N/A Thunderstorm Unknown
11:35 AM 73.4 °F 69.8 °F 88% 29.88 in 10.0 mi SSW 12.7 mph 16.1 mph N/A   Mostly Cloudy
11:55 AM 71.6 °F 68.0 °F 88% 29.87 in 2.0 mi SSW 15.0 mph 21.9 mph N/A Rain , Thunderstorm Heavy Thunderstorms and Rain
12:15 PM 71.6 °F 69.8 °F 94% 29.86 in 3.0 mi SW 12.7 mph 16.1 mph N/A Rain , Thunderstorm Light Thunderstorms and Rain
12:35 PM 73.4 °F 71.6 °F 94% 29.87 in 10.0 mi West 19.6 mph 29.9 mph N/A Rain Rain
12:55 PM 68.0 °F 64.4 °F 88% 29.85 in 7.0 mi WSW 11.5 mph 27.6 mph N/A Rain Light Rain
1:15 PM 68.0 °F 64.4 °F 88% 29.86 in 10.0 mi WSW 13.8 mph 18.4 mph N/A Rain Light Rain
1:35 PM 68.0 °F 64.4 °F 88% 29.83 in 10.0 mi West 11.5 mph 19.6 mph N/A Rain Rain
1:55 PM 68.0 °F 64.4 °F 88% 29.82 in 10.0 mi WSW 8.1 mph - N/A Rain , Thunderstorm Light Thunderstorms and Rain
2:15 PM 68.0 °F 64.4 °F 88% 29.81 in 10.0 mi West 4.6 mph - N/A Rain Light Rain
2:35 PM 68.0 °F 64.4 °F 88% 29.82 in 10.0 mi WSW 8.1 mph - N/A Rain Light Rain
2:55 PM 68.0 °F 64.4 °F 88% 29.82 in 10.0 mi SW 5.8 mph - N/A   Overcast
3:15 PM 68.0 °F 64.4 °F 88% 29.82 in 10.0 mi WSW 4.6 mph - N/A   Overcast
3:35 PM 69.8 °F 68.0 °F 94% 29.82 in 10.0 mi WSW 6.9 mph - N/A   Mostly Cloudy
3:55 PM 68.0 °F 64.4 °F 88% 29.83 in 10.0 mi SW 6.9 mph - N/A   Mostly Cloudy
4:15 PM 71.6 °F 68.0 °F 88% 29.82 in 10.0 mi SW 5.8 mph - N/A   Mostly Cloudy
4:35 PM 69.8 °F 64.4 °F 83% 29.82 in 10.0 mi SW 6.9 mph - N/A   Scattered Clouds
4:55 PM 68.0 °F 64.4 °F 88% 29.83 in 10.0 mi SW 4.6 mph - N/A   Scattered Clouds
5:15 PM 68.0 °F 64.4 °F 88% 29.83 in 10.0 mi SSW 5.8 mph - N/A   Mostly Cloudy
5:35 PM 68.0 °F 62.6 °F 83% 29.83 in 10.0 mi SSW 6.9 mph - N/A   Scattered Clouds
5:55 PM 66.2 °F 62.6 °F 88% 29.83 in 10.0 mi SSW 4.6 mph - N/A   Scattered Clouds
6:15 PM 64.4 °F 62.6 °F 94% 29.84 in 10.0 mi SSW 4.6 mph - N/A   Scattered Clouds
6:35 PM 64.4 °F 62.6 °F 94% 29.84 in 10.0 mi South 5.8 mph - N/A   Scattered Clouds
6:55 PM 66.2 °F 62.6 °F 88% 29.83 in 10.0 mi South 6.9 mph - N/A Rain Rain
7:15 PM 66.2 °F 64.4 °F 94% 29.87 in 2.5 mi NW 12.7 mph 16.1 mph N/A Rain Heavy Rain
7:35 PM 64.4 °F 62.6 °F 94% 29.87 in 10.0 mi West 6.9 mph - N/A   Scattered Clouds
7:55 PM 64.4 °F 62.6 °F 94% 29.89 in 10.0 mi WNW 4.6 mph - N/A   Mostly Cloudy
8:15 PM 64.4 °F 62.6 °F 94% 29.91 in 10.0 mi West 5.8 mph - N/A   Overcast
8:35 PM 62.6 °F 60.8 °F 94% 29.92 in 10.0 mi West 6.9 mph - N/A   Scattered Clouds
8:55 PM 60.8 °F 59.0 °F 94% 29.93 in 10.0 mi West 5.8 mph - N/A   Clear
9:15 PM 60.8 °F 55.4 °F 82% 29.94 in 10.0 mi West 8.1 mph - N/A   Clear
9:35 PM 59.0 °F 53.6 °F 82% 29.95 in 10.0 mi West 5.8 mph - N/A   Clear
9:55 PM 59.0 °F 55.4 °F 88% 29.96 in 10.0 mi West 6.9 mph - N/A   Clear
10:15 PM 59.0 °F 51.8 °F 77% 29.98 in 10.0 mi WNW 11.5 mph 16.1 mph N/A   Clear
10:35 PM 59.0 °F 46.4 °F 63% 29.99 in 10.0 mi NW 11.5 mph 16.1 mph N/A   Clear
10:55 PM 59.0 °F 44.6 °F 59% 30.00 in 10.0 mi WNW 12.7 mph - N/A   Clear
11:15 PM 59.0 °F 42.8 °F 55% 30.00 in 10.0 mi WNW 12.7 mph 18.4 mph N/A   Clear
11:35 PM 59.0 °F 42.8 °F 55% 30.01 in 10.0 mi WNW 12.7 mph - N/A   Clear
11:55 PM 55.4 °F 41.0 °F 58% 30.02 in 10.0 mi WNW 12.7 mph - N/A   Clear